Flight Track Log - Related Links

Times and Time Zones

All times are in EDT time to prevent confusion due to time zone crossing. See the SWA2702 flight status page for this flight to view local times or setup timezone preferences in your user account.

Time Position Orientation Groundspeed Altitude Reporting Facility
EDT Latitude Longitude Course Direction KTS MPH feet Rate Location/Type
Sat 07:48:47 PM 29.9781 -90.2539 208° Southwest 161 185 1,000  Level Houston Center
Sat 07:49:54 PM 29.9208 -90.2897 208° Southwest 242 278 3,200 2,319 Climbing Houston Center
Sat 07:50:46 PM 29.9144 -90.3517 263° West 283 326 5,600 4,088 Climbing Houston Center
Sat 07:51:47 PM 29.9042 -90.4536 263° West 268 308 10,900 3,707 Climbing Houston Center
Sat 07:52:49 PM 29.8922 -90.5544 262° West 324 373 13,200 2,683 Climbing Houston Center
Sat 07:53:50 PM 29.8817 -90.6633 264° West 342 394 16,400 2,976 Climbing Houston Center
Sat 07:54:52 PM 29.8492 -90.7711 251° West 355 409 19,300 2,878 Climbing Houston Center
Sat 07:55:53 PM 29.8183 -90.8778 252° West 353 406 22,300 2,098 Climbing Houston Center
Sat 07:56:55 PM 29.7783 -90.9867 247° West 366 421 23,600 1,742 Climbing Houston Center
Sat 07:57:57 PM 29.7372 -91.1036 248° West 391 450 25,900 2,146 Climbing Houston Center
Sat 07:58:58 PM 29.6961 -91.2208 248° West 396 456 28,000 2,244 Climbing Houston Center
Sat 08:00:00 PM 29.6547 -91.3361 248° West 391 450 30,500 2,878 Climbing Houston Center
Sat 08:01:01 PM 29.6075 -91.4636 247° West 362 417 33,900 1,707 Climbing Houston Center
Sat 08:02:03 PM 29.5731 -91.5636 248° West 341 392 34,000 49 Climbing Houston Center
Sat 08:03:04 PM 29.5356 -91.6664 247° West 346 398 34,000  Level Houston Center
Sat 08:04:06 PM 29.4969 -91.7714 247° West 349 402 34,000  Level Houston Center
Sat 08:05:07 PM 29.4608 -91.8744 248° West 348 400 34,000  Level Houston Center
Sat 08:06:09 PM 29.4222 -91.9767 247° West 349 402 34,000  Level Houston Center
Sat 08:07:10 PM 29.3856 -92.0794 248° West 349 402 34,000  Level Houston Center
Sat 08:08:12 PM 29.3481 -92.1814 247° West 348 400 34,000  Level Houston Center
Sat 08:09:13 PM 29.3106 -92.2842 247° West 348 400 34,000  Level Houston Center
Sat 08:10:15 PM 29.2647 -92.4056 247° West 346 398 34,000  Level Houston Center
Sat 08:11:17 PM 29.2431 -92.5139 257° West 354 407 34,000  Level Houston Center
Sat 08:12:18 PM 29.2461 -92.6261 272° West 355 409 34,000 -49 Level Houston Center
Sat 08:13:20 PM 29.2475 -92.7394 271° West 356 410 33,900 -585 Descending Houston Center
Sat 08:14:21 PM 29.2494 -92.8525 271° West 356 410 32,800 -976 Descending Houston Center
Sat 08:15:23 PM 29.2514 -92.9658 271° West 357 411 31,900 -976 Descending Houston Center
Sat 08:16:24 PM 29.2533 -93.0789 271° West 356 410 30,800 -1,033 Descending Houston Center
Sat 08:17:25 PM 29.2556 -93.1931 271° West 356 410 29,800 -927 Descending Houston Center
Sat 08:18:27 PM 29.2572 -93.3094 271° West 362 417 28,900 -927 Descending Houston Center
Sat 08:19:28 PM 29.2589 -93.4531 271° West 371 427 27,900 -976 Descending Houston Center
Sat 08:20:30 PM 29.2597 -93.5761 270° West 379 436 26,900 -976 Descending Houston Center
Sat 08:21:31 PM 29.2614 -93.7006 271° West 385 443 25,900 -927 Descending Houston Center
Sat 08:22:33 PM 29.2625 -93.8294 271° West 399 459 25,000 -1,561 Descending Houston Center
Sat 08:23:34 PM 29.2633 -93.9572 270° West 406 467 22,700 -2,488 Descending Houston Center
Sat 08:24:36 PM 29.2653 -94.0800 271° West 390 449 19,900 -2,732 Descending Houston Center
Sat 08:25:37 PM 29.2661 -94.1942 271° West 364 419 17,100 -2,000 Descending Houston Center
Sat 08:26:39 PM 29.2656 -94.3081 270° West 357 411 15,800 -2,098 Descending Houston Center
Sat 08:27:40 PM 29.2675 -94.4433 271° West 355 409 12,800 -1,902 Descending Houston Center
Sat 08:28:42 PM 29.2986 -94.5469 289° West 358 412 11,900 -927 Descending Houston Center
Sat 08:29:43 PM 29.3483 -94.6483 299° West 363 418 10,900 -934 Descending Houston Center
Sat 08:30:44 PM 29.3992 -94.7547 299° West 377 434 10,000 -439 Descending Houston Center
Sat 08:31:46 PM 29.4519 -94.8589 300° West 380 437 10,000 -49 Level Houston Center
Sat 08:32:47 PM 29.5006 -94.9583 299° West 361 415 9,900 -488 Descending Houston Center
Sat 08:33:49 PM 29.5408 -95.0417 299° West 306 352 9,000 -1,463 Descending Houston Center
Sat 08:34:50 PM 29.5858 -95.1389 298° West 297 342 6,900 -1,525 Descending Houston Center
Sat 08:35:51 PM 29.5722 -95.2156 258° West 283 326 5,900 -878 Descending Houston Center
Sat 08:36:53 PM 29.5308 -95.2731 230° Southwest 234 269 5,100 -1,266 Descending Houston Center
Sat 08:37:59 PM 29.4936 -95.3447 239° Southwest 236 272 3,200 -1,525 Descending Houston Center
Sat 08:38:55 PM 29.5331 -95.3633 338° Northwest 226 260 2,000 -915 Descending Houston Center
Sat 08:39:57 PM 29.5925 -95.3381 20° North 200 230 1,400 -694 Descending Houston Center
Sat 08:40:56 PM 29.6200 -95.3053 46° Northeast 127 146 600 -639 Descending Houston Center
Sat 08:41:59 PM 29.6442 -95.2789 43° Northeast 152 175 100 -476 Descending Houston Center

Login

Don't have an account? Register now (free) for customized features, flight alerts, and more!